Content
SEND FEEDBACK

Daily
Averages
Monthly
Summary
United States of America

GREENFIELD, MASSACHUSETTS


Home > North America > United States > Massachusetts
Elevation: 190 feet     Latitude: 42 37N     Longitude: 072 33W

WEATHER
 
SELECT A DAY
Number of Records: 212,494;   Date Range: 7/1/96 - 8/12/14
 
SHARE

PRINT THIS DATA

[ ← Previous Day ]
WEATHER ALMANAC - APRIL 30, 2014
[ Next Day → ]
[ °C ]   °F
Weather ElementAverageHighLow
Temperature41 °F43 °F (12:06 pm)37.4 °F (6:49 am)
Dewpoint37.2 °F39 °F (2:20 pm)34 °F (1:52 am)
Humidity86.5 %93 % (6:49 am)76 % (12:06 pm)
Barometer30.39 in30.52 in (3:52 am)30.16 in (11:52 pm)
Wind Speed5.6 mph10.4 mph (11:52 am)
Weather ElementAverage
Visibility8.2 mi
Wind DirectionESE (102.5 °)

Weather ElementTotal
Precipitation1.14 in
Heating Degree Days24.8 (Base 65)
Averaged from 36 records on April 30, 2014
WEATHER CONDITIONS BREAKOUT
WIND DIRECTION BREAKOUT
WEATHER BY HOUR - APRIL 30, 2014
[ °C ]   °F
Local TimeTemperatureDewpointHumidityBarometerVisibilityWind DirectionWind SpeedGust SpeedPrecipitationEventsConditions
1:52 AM39.0 °F34.0 °F82 %30.51 in10.0 miEast (90°)4.6 mph0.00 inOvercast
2:52 AM39.0 °F35.1 °F86 %30.50 in10.0 miEast (90°)3.5 mph0.01 inRainLight Rain
3:27 AM39.0 °F36.0 °F89 %30.48 in10.0 miEast (80°)3.5 mph0.00 inRainLight Rain
3:52 AM39.0 °F35.1 °F86 %30.52 in10.0 miEast (80°)4.6 mph0.00 inOvercast
4:35 AM39.0 °F35.1 °F86 %30.49 in10.0 miEast (80°)4.6 mph0.00 inOvercast
4:52 AM39.0 °F35.1 °F86 %30.51 in9.0 miCalm0.01 inRainLight Rain
5:52 AM37.9 °F35.1 °F89 %30.51 in8.0 miENE (70°)3.5 mph0.05 inRainLight Rain
6:49 AM37.4 °F35.6 °F93 %30.49 in8.0 miCalm0.05 inRainLight Rain
6:52 AM39.0 °F35.1 °F86 %30.51 in8.0 miNE (50°)4.6 mph0.05 inRainLight Rain
7:52 AM39.0 °F35.1 °F86 %30.51 in10.0 miEast (80°)4.6 mph0.03 inRainLight Rain
8:52 AM39.0 °F36.0 °F89 %30.48 in10.0 miEast (80°)8.1 mph0.00 inOvercast
9:52 AM39.9 °F36.0 °F86 %30.48 in10.0 miVariable5.8 mph0.00 inRainLight Rain
11:52 AM42.1 °F36.0 °F79 %30.45 in10.0 miESE (120°)10.4 mph0.00 inRainLight Rain
12:06 PM43.0 °F36.0 °F76 %30.42 in10.0 miSE (130°)8.1 mph0.00 inOvercast
12:22 PM42.1 °F37.0 °F82 %30.42 in10.0 miSE (130°)6.9 mph0.00 inRainLight Rain
12:52 PM43.0 °F36.0 °F76 %30.43 in10.0 miESE (120°)9.2 mph0.01 inRainLight Rain
1:52 PM42.1 °F37.9 °F85 %30.41 in6.0 miEast (100°)5.8 mph0.04 inRainLight Rain
2:20 PM42.1 °F39.0 °F89 %30.38 in6.0 miEast (100°)9.2 mph0.04 inRainLight Rain
2:30 PM42.1 °F37.9 °F85 %30.37 in8.0 miEast (100°)6.9 mph0.05 inRainLight Rain
2:38 PM42.1 °F39.0 °F89 %30.37 in7.0 miESE (110°)5.8 mph0.05 inRainLight Rain
2:52 PM42.1 °F39.0 °F89 %30.38 in7.0 miSE (140°)5.8 mph0.06 inRainLight Rain
3:33 PM43.0 °F37.9 °F82 %30.35 in10.0 miESE (110°)6.9 mph0.00 inRainLight Rain
3:41 PM43.0 °F39.0 °F86 %30.34 in10.0 miESE (120°)6.9 mph0.00 inOvercast
3:52 PM43.0 °F39.0 °F86 %30.35 in10.0 miESE (120°)8.1 mph0.01 inRainLight Rain
4:10 PM43.0 °F39.0 °F86 %30.33 in7.0 miESE (110°)10.4 mph0.00 inRainLight Rain
4:52 PM42.1 °F39.0 °F89 %30.35 in4.0 miSE (130°)4.6 mph0.05 inRainLight Rain
5:09 PM42.1 °F39.0 °F89 %30.32 in2.0 miSE (130°)4.6 mph0.07 inRainHeavy Rain
5:52 PM42.1 °F39.0 °F89 %30.32 in2.0 miEast (100°)6.9 mph0.20 inRainRain
6:06 PM42.1 °F39.0 °F89 %30.30 in3.0 miSE (130°)3.5 mph0.04 inRainRain
6:52 PM41.0 °F37.9 °F89 %30.29 in4.0 miEast (90°)3.5 mph0.13 inRainRain
7:36 PM41.0 °F37.9 °F89 %30.26 in7.0 miESE (110°)6.9 mph0.06 inRainRain
7:49 PM41.0 °F37.4 °F87 %30.26 in8.0 miEast (100°)3.5 mph0.08 inRainLight Rain
8:52 PM41.0 °F37.9 °F89 %30.26 in10.0 miESE (120°)9.2 mph0.00 inOvercast
9:52 PM41.0 °F37.9 °F89 %30.23 in10.0 miESE (110°)4.6 mph0.03 inRainLight Rain
10:52 PM41.0 °F37.9 °F89 %30.18 in10.0 miESE (110°)4.6 mph0.01 inOvercast
11:52 PM41.0 °F39.0 °F93 %30.16 in10.0 miNorth (350°)3.5 mph0.01 inRainLight Rain
Hourly data recorded from KORE, located miles away from Greenfield, Massachusetts







STORIES FROM OUR PARTNERS